Weather History for K5H4 - July, 2013

Change the Weather History Date:

Monday, July 22, 2013

  Actual Average (KRUG) Record (KRUG)
Temperature  
Mean Temperature 62 °F -  
Max Temperature 68 °F 83 °F 100 °F (1988)
Min Temperature 57 °F 56 °F 42 °F (1992)
Degree Days  
Heating Degree Days 2    
Growing Degree Days 12 (Base 50)    
Moisture  
Dew Point 58 °F    
Average Humidity 85    
Maximum Humidity 100    
Minimum Humidity 64    
Precipitation  
Precipitation 0.00 in - - ()
Sea Level Pressure  
Sea Level Pressure 29.88 in    
Wind  
Wind Speed 11 mph (NNW)    
Max Wind Speed 15 mph    
Max Gust Speed 22 mph    
Visibility 10 miles    
Events      
Averages and records for this station are not official NWS values.
T = Trace of Precipitation, MM = Missing Value Source: NWS Daily Summary

Daily Weather History Graph

Daily Weather History Graph

Search for Another Location

Airport or City:

Trip Planner

Search our weather history database for the weather conditions in past years. The results will help you decide how hot, cold, wet, or windy it might be!

Date:

Astronomy

Jul. 22, 2013 Rise Set
Actual Time 6:04 AM CDT 9:26 PM CDT
Civil Twilight 5:26 AM CDT 10:04 PM CDT
Nautical Twilight 4:36 AM CDT 10:54 PM CDT
Astronomical Twilight 3:31 AM CDT 11:58 PM CDT
Moon 9:06 PM CDT (7/22) 6:08 AM CDT (7/22)
Length of Visible Light 16h 37m
Length of Day
15h 22m
Full, 100% of the Moon is Illuminated
Jul 22
Full
Jul 22
Full
Jul 29
Last Quarter
Aug 6
New
Aug 14
First Quarter

Hourly Weather History & Observations

Time (CDT) Temp. Dew Point Humidity Pressure Visibility Wind Dir Wind Speed Gust Speed Precip Events Conditions
1:15 AM 64.4 °F 62.6 °F 94% 29.73 in 10.0 mi WNW 11.5 mph 18.4 mph N/A   Unknown
1:35 AM 62.6 °F 62.6 °F 100% 29.73 in 10.0 mi WNW 13.8 mph - N/A   Clear
1:55 AM 62.6 °F 62.6 °F 100% 29.73 in 10.0 mi WNW 12.7 mph 17.3 mph N/A   Clear
2:15 AM 62.6 °F 60.8 °F 94% 29.73 in 10.0 mi WNW 9.2 mph - N/A   Clear
2:35 AM 62.6 °F 60.8 °F 94% 29.74 in 10.0 mi WNW 11.5 mph 17.3 mph N/A   Clear
2:55 AM 62.6 °F 60.8 °F 94% 29.74 in 10.0 mi NW 15.0 mph 21.9 mph N/A   Clear
3:15 AM 62.6 °F 60.8 °F 94% 29.74 in 10.0 mi NW 13.8 mph - N/A   Clear
3:35 AM 60.8 °F 60.8 °F 100% 29.75 in 10.0 mi NW 12.7 mph - N/A   Clear
3:55 AM 60.8 °F 60.8 °F 100% 29.75 in 10.0 mi WNW 13.8 mph - N/A   Clear
4:15 AM 59.0 °F 59.0 °F 100% 29.75 in 10.0 mi NW 12.7 mph - N/A   Clear
4:35 AM 59.0 °F 59.0 °F 100% 29.76 in 10.0 mi NW 13.8 mph - N/A   Clear
4:55 AM 59.0 °F 59.0 °F 100% 29.76 in 10.0 mi NW 12.7 mph - N/A   Clear
5:15 AM 57.2 °F 57.2 °F 100% 29.77 in 10.0 mi NW 11.5 mph - N/A   Clear
5:35 AM 57.2 °F 57.2 °F 100% 29.77 in 10.0 mi NW 13.8 mph 17.3 mph N/A   Clear
5:55 AM 57.2 °F 57.2 °F 100% 29.78 in 10.0 mi NW 9.2 mph - N/A   Clear
6:15 AM 57.2 °F 57.2 °F 100% 29.79 in 10.0 mi NW 10.4 mph - N/A   Clear
6:35 AM 57.2 °F 57.2 °F 100% 29.80 in 10.0 mi NW 9.2 mph - N/A   Partly Cloudy
6:55 AM 57.2 °F 57.2 °F 100% 29.81 in 10.0 mi NW 10.4 mph - N/A   Scattered Clouds
7:15 AM 59.0 °F 59.0 °F 100% 29.82 in 10.0 mi NW 13.8 mph - N/A   Mostly Cloudy
7:35 AM 59.0 °F 59.0 °F 100% 29.83 in 10.0 mi NW 15.0 mph - N/A   Mostly Cloudy
7:55 AM 59.0 °F 59.0 °F 100% 29.83 in 10.0 mi NNW 13.8 mph - N/A   Mostly Cloudy
8:35 AM 59.0 °F 57.2 °F 94% 29.84 in 10.0 mi NNW 13.8 mph - N/A   Overcast
9:35 AM 62.6 °F 57.2 °F 82% 29.86 in 10.0 mi North 12.7 mph 19.6 mph N/A   Mostly Cloudy
9:55 AM 62.6 °F 57.2 °F 82% 29.87 in 10.0 mi NNW 13.8 mph - N/A   Mostly Cloudy
10:15 AM 62.6 °F 57.2 °F 82% 29.87 in 10.0 mi NNW 11.5 mph 20.7 mph N/A   Overcast
10:35 AM 62.6 °F 57.2 °F 82% 29.88 in 10.0 mi NNW 12.7 mph - N/A   Overcast
10:55 AM 62.6 °F 57.2 °F 82% 29.88 in 10.0 mi North 13.8 mph - N/A   Overcast
11:15 AM 62.6 °F 57.2 °F 82% 29.89 in 10.0 mi NNW 13.8 mph - N/A   Overcast
11:35 AM 62.6 °F 57.2 °F 82% 29.90 in 10.0 mi North 12.7 mph - N/A   Overcast
11:55 AM 62.6 °F 57.2 °F 82% 29.90 in 10.0 mi NNW 10.4 mph - N/A   Overcast
12:15 PM 62.6 °F 57.2 °F 82% 29.90 in 10.0 mi North 10.4 mph - N/A   Overcast
12:35 PM 62.6 °F 57.2 °F 82% 29.91 in 10.0 mi NNW 10.4 mph 16.1 mph N/A   Overcast
12:55 PM 64.4 °F 57.2 °F 77% 29.91 in 10.0 mi North 11.5 mph 17.3 mph N/A   Overcast
1:15 PM 64.4 °F 57.2 °F 77% 29.91 in 10.0 mi NW 11.5 mph - N/A   Overcast
1:35 PM 66.2 °F 57.2 °F 73% 29.91 in 10.0 mi North 11.5 mph 18.4 mph N/A   Overcast
1:55 PM 66.2 °F 57.2 °F 73% 29.91 in 10.0 mi North 13.8 mph 18.4 mph N/A   Overcast
2:15 PM 68.0 °F 57.2 °F 68% 29.91 in 10.0 mi NNW 11.5 mph 17.3 mph N/A   Overcast
2:35 PM 66.2 °F 57.2 °F 73% 29.92 in 10.0 mi NNW 11.5 mph - N/A   Overcast
2:55 PM 66.2 °F 57.2 °F 73% 29.92 in 10.0 mi North 12.7 mph 16.1 mph N/A   Overcast
3:15 PM 68.0 °F 57.2 °F 68% 29.92 in 10.0 mi North 8.1 mph - N/A   Overcast
3:35 PM 66.2 °F 57.2 °F 73% 29.93 in 10.0 mi North 9.2 mph 16.1 mph N/A   Overcast
3:55 PM 66.2 °F 55.4 °F 68% 29.93 in 10.0 mi North 10.4 mph - N/A   Overcast
4:15 PM 66.2 °F 55.4 °F 68% 29.93 in 10.0 mi NNE 11.5 mph - N/A   Overcast
4:35 PM 68.0 °F 55.4 °F 64% 29.93 in 10.0 mi NNE 8.1 mph - N/A   Overcast
4:55 PM 66.2 °F 57.2 °F 73% 29.93 in 10.0 mi NNE 8.1 mph - N/A   Overcast
5:15 PM 66.2 °F 55.4 °F 68% 29.93 in 10.0 mi NNE 9.2 mph - N/A   Overcast
5:35 PM 68.0 °F 57.2 °F 68% 29.93 in 10.0 mi NE 8.1 mph - N/A   Mostly Cloudy
5:55 PM 68.0 °F 57.2 °F 68% 29.93 in 10.0 mi NNE 10.4 mph - N/A   Scattered Clouds
6:15 PM 68.0 °F 57.2 °F 68% 29.93 in 10.0 mi NNE 5.8 mph - N/A   Mostly Cloudy
6:35 PM 68.0 °F 55.4 °F 64% 29.93 in 10.0 mi North 6.9 mph - N/A   Clear
6:55 PM 68.0 °F 55.4 °F 64% 29.93 in 10.0 mi NNE 10.4 mph - N/A   Partly Cloudy
7:15 PM 64.4 °F 57.2 °F 77% 29.94 in 10.0 mi NNE 8.1 mph - N/A   Scattered Clouds
7:35 PM 66.2 °F 57.2 °F 73% 29.94 in 10.0 mi NNE 8.1 mph - N/A   Overcast
7:55 PM 66.2 °F 57.2 °F 73% 29.94 in 10.0 mi NNE 8.1 mph - N/A   Mostly Cloudy
8:15 PM 64.4 °F 57.2 °F 77% 29.94 in 10.0 mi NE 5.8 mph - N/A   Mostly Cloudy
8:35 PM 64.4 °F 57.2 °F 77% 29.94 in 10.0 mi NNE 8.1 mph - N/A   Overcast
8:55 PM 62.6 °F 57.2 °F 82% 29.94 in 10.0 mi NNE 8.1 mph - N/A   Overcast
9:15 PM 60.8 °F 57.2 °F 88% 29.94 in 10.0 mi NE 6.9 mph - N/A   Scattered Clouds
9:35 PM 59.0 °F 57.2 °F 94% 29.95 in 10.0 mi NE 5.8 mph - N/A   Partly Cloudy
9:55 PM 57.2 °F 55.4 °F 94% 29.96 in 5.0 mi ENE 4.6 mph - N/A   Clear
10:15 PM 57.2 °F 55.4 °F 94% 29.97 in 6.0 mi East 3.5 mph - N/A   Clear
10:35 PM 59.0 °F 53.6 °F 82% 29.98 in 7.0 mi East 3.5 mph - N/A   Mostly Cloudy
10:55 PM 59.0 °F 55.4 °F 88% 29.99 in 10.0 mi Calm Calm - N/A   Scattered Clouds
11:15 PM 57.2 °F 57.2 °F 100% 30.00 in 10.0 mi Calm Calm - N/A   Mostly Cloudy
11:35 PM 59.0 °F 59.0 °F 100% 30.00 in 10.0 mi Calm Calm - N/A   Overcast
11:55 PM 59.0 °F 59.0 °F 100% 30.00 in 7.0 mi Calm Calm - N/A   Mostly Cloudy